Year,Month,Day,Hour,Minute,Value (Times are PST for temperature in C)
2022,04,18,00,00,-6.60
2022,04,18,00,01,-6.70
2022,04,18,00,02,-6.70
2022,04,18,00,03,-6.70
2022,04,18,00,04,-6.70
2022,04,18,00,05,-6.70
2022,04,18,00,06,-6.80
2022,04,18,00,07,-6.80
2022,04,18,00,08,-6.80
2022,04,18,00,09,-6.80
2022,04,18,00,10,-6.80
2022,04,18,00,11,-6.90
2022,04,18,00,12,-6.90
2022,04,18,00,13,-6.90
2022,04,18,00,14,-7.00
2022,04,18,00,15,-7.00
2022,04,18,00,16,-7.00
2022,04,18,00,17,-7.10
2022,04,18,00,18,-7.10
2022,04,18,00,19,-7.10
2022,04,18,00,20,-7.10
2022,04,18,00,21,-7.10
2022,04,18,00,22,-7.10
2022,04,18,00,23,-7.10
2022,04,18,00,24,-7.10
2022,04,18,00,25,-7.20
2022,04,18,00,26,-7.20
2022,04,18,00,27,-7.20
2022,04,18,00,28,-7.20
2022,04,18,00,29,-7.30
2022,04,18,00,30,-7.30
2022,04,18,00,31,-7.30
2022,04,18,00,32,-7.30
2022,04,18,00,33,-7.40
2022,04,18,00,34,-7.40
2022,04,18,00,35,-7.40
2022,04,18,00,36,-7.40
2022,04,18,00,37,-7.50
2022,04,18,00,38,-7.50
2022,04,18,00,39,-7.50
2022,04,18,00,40,-7.50
2022,04,18,00,41,-7.60
2022,04,18,00,42,-7.60
2022,04,18,00,43,-7.60
2022,04,18,00,44,-7.60
2022,04,18,00,45,-7.60
2022,04,18,00,46,-7.60
2022,04,18,00,47,-7.70
2022,04,18,00,48,-7.70
2022,04,18,00,49,-7.70
2022,04,18,00,50,-7.70
2022,04,18,00,51,-7.70
2022,04,18,00,52,-7.80
2022,04,18,00,53,-7.80
2022,04,18,00,54,-7.80
2022,04,18,00,55,-7.80
2022,04,18,00,56,-7.90
2022,04,18,00,57,-7.90
2022,04,18,00,58,-7.90
2022,04,18,00,59,-7.90
2022,04,18,01,00,-8.00
2022,04,18,01,01,-8.00
2022,04,18,01,02,-8.10
2022,04,18,01,03,-8.10
2022,04,18,01,04,-8.10
2022,04,18,01,05,-8.10
2022,04,18,01,06,-8.10
2022,04,18,01,07,-8.10
2022,04,18,01,08,-8.20
2022,04,18,01,09,-8.20
2022,04,18,01,10,-8.20
2022,04,18,01,11,-8.20
2022,04,18,01,12,-8.20
2022,04,18,01,13,-8.20
2022,04,18,01,14,-8.20
2022,04,18,01,15,-8.20
2022,04,18,01,16,-8.20
2022,04,18,01,17,-8.20
2022,04,18,01,18,-8.30
2022,04,18,01,19,-8.30
2022,04,18,01,20,-8.30
2022,04,18,01,21,-8.30
2022,04,18,01,22,-8.30
2022,04,18,01,23,-8.30
2022,04,18,01,24,-8.30
2022,04,18,01,25,-8.40
2022,04,18,01,26,-8.40
2022,04,18,01,27,-8.40
2022,04,18,01,28,-8.40
2022,04,18,01,29,-8.40
2022,04,18,01,30,-8.40
2022,04,18,01,31,-8.40
2022,04,18,01,32,-8.50
2022,04,18,01,33,-8.50
2022,04,18,01,34,-8.50
2022,04,18,01,35,-8.50
2022,04,18,01,36,-8.50
2022,04,18,01,37,-8.60
2022,04,18,01,38,-8.60
2022,04,18,01,39,-8.60
2022,04,18,01,40,-8.60
2022,04,18,01,41,-8.60
2022,04,18,01,42,-8.70
2022,04,18,01,43,-8.70
2022,04,18,01,44,-8.70
2022,04,18,01,45,-8.70
2022,04,18,01,46,-8.70
2022,04,18,01,47,-8.80
2022,04,18,01,48,-8.80
2022,04,18,01,49,-8.80
2022,04,18,01,50,-8.80
2022,04,18,01,51,-8.80
2022,04,18,01,52,-8.80
2022,04,18,01,53,-8.80
2022,04,18,01,54,-8.90
2022,04,18,01,55,-8.90
2022,04,18,01,56,-8.90
2022,04,18,01,57,-8.90
2022,04,18,01,58,-8.90
2022,04,18,01,59,-8.90
2022,04,18,02,00,-8.90
2022,04,18,02,01,-8.90
2022,04,18,02,02,-8.90
2022,04,18,02,03,-8.90
2022,04,18,02,04,-8.90
2022,04,18,02,05,-8.90
2022,04,18,02,06,-9.00
2022,04,18,02,07,-9.00
2022,04,18,02,08,-9.00
2022,04,18,02,09,-9.00
2022,04,18,02,10,-9.10
2022,04,18,02,11,-9.10
2022,04,18,02,12,-9.10
2022,04,18,02,13,-9.10
2022,04,18,02,14,-9.10
2022,04,18,02,15,-9.10
2022,04,18,02,16,-9.10
2022,04,18,02,17,-9.10
2022,04,18,02,18,-9.10
2022,04,18,02,19,-9.10
2022,04,18,02,20,-9.10
2022,04,18,02,21,-9.20
2022,04,18,02,22,-9.20
2022,04,18,02,23,-9.20
2022,04,18,02,24,-9.20
2022,04,18,02,25,-9.30
2022,04,18,02,26,-9.30
2022,04,18,02,27,-9.30
2022,04,18,02,28,-9.30
2022,04,18,02,29,-9.30
2022,04,18,02,30,-9.30
2022,04,18,02,31,-9.40
2022,04,18,02,32,-9.40
2022,04,18,02,33,-9.40
2022,04,18,02,34,-9.40
2022,04,18,02,35,-9.40
2022,04,18,02,36,-9.40
2022,04,18,02,37,-9.40
2022,04,18,02,38,-9.40
2022,04,18,02,39,-9.50
2022,04,18,02,40,-9.50
2022,04,18,02,41,-9.50
2022,04,18,02,42,-9.50
2022,04,18,02,43,-9.60
2022,04,18,02,44,-9.60
2022,04,18,02,45,-9.60
2022,04,18,02,46,-9.60
2022,04,18,02,47,-9.70
2022,04,18,02,48,-9.70
2022,04,18,02,49,-9.70
2022,04,18,02,50,-9.70
2022,04,18,02,51,-9.70
2022,04,18,02,52,-9.80
2022,04,18,02,53,-9.80
2022,04,18,02,54,-9.80
2022,04,18,02,55,-9.80
2022,04,18,02,56,-9.80
2022,04,18,02,57,-9.90
2022,04,18,02,58,-9.90
2022,04,18,02,59,-9.90
2022,04,18,03,00,-9.90
2022,04,18,03,01,-9.90
2022,04,18,03,02,-10.00
2022,04,18,03,03,-10.00
2022,04,18,03,04,-10.00
2022,04,18,03,05,-10.10
2022,04,18,03,06,-10.10
2022,04,18,03,07,-10.10
2022,04,18,03,08,-10.10
2022,04,18,03,09,-10.10
2022,04,18,03,10,-10.10
2022,04,18,03,11,-10.10
2022,04,18,03,12,-10.10
2022,04,18,03,13,-10.20
2022,04,18,03,14,-10.20
2022,04,18,03,15,-10.20
2022,04,18,03,16,-10.20
2022,04,18,03,17,-10.20
2022,04,18,03,18,-10.20
2022,04,18,03,19,-10.20
2022,04,18,03,20,-10.20
2022,04,18,03,21,-10.20
2022,04,18,03,22,-10.30
2022,04,18,03,23,-10.30
2022,04,18,03,24,-10.30
2022,04,18,03,25,-10.30
2022,04,18,03,26,-10.30
2022,04,18,03,27,-10.30
2022,04,18,03,28,-10.40
2022,04,18,03,29,-10.40
2022,04,18,03,30,-10.40
2022,04,18,03,31,-10.40
2022,04,18,03,32,-10.50
2022,04,18,03,33,-10.50
2022,04,18,03,34,-10.50
2022,04,18,03,35,-10.50
2022,04,18,03,36,-10.60
2022,04,18,03,37,-10.60
2022,04,18,03,38,-10.60
2022,04,18,03,39,-10.60
2022,04,18,03,40,-10.60
2022,04,18,03,41,-10.70
2022,04,18,03,42,-10.70
2022,04,18,03,43,-10.70
2022,04,18,03,44,-10.70
2022,04,18,03,45,-10.70
2022,04,18,03,46,-10.70
2022,04,18,03,47,-10.70
2022,04,18,03,48,-10.70
2022,04,18,03,49,-10.70
2022,04,18,03,50,-10.70
2022,04,18,03,51,-10.80
2022,04,18,03,52,-10.80
2022,04,18,03,53,-10.80
2022,04,18,03,54,-10.80
2022,04,18,03,55,-10.80
2022,04,18,03,56,-10.80
2022,04,18,03,57,-10.80
2022,04,18,03,58,-10.80
2022,04,18,03,59,-10.80
2022,04,18,04,00,-10.80
2022,04,18,04,01,-10.80
2022,04,18,04,02,-10.80
2022,04,18,04,03,-10.80
2022,04,18,04,04,-10.90
2022,04,18,04,05,-10.90
2022,04,18,04,06,-10.90
2022,04,18,04,07,-10.90
2022,04,18,04,08,-10.90
2022,04,18,04,09,-11.00
2022,04,18,04,10,-11.00
2022,04,18,04,11,-11.00
2022,04,18,04,12,-11.00
2022,04,18,04,13,-11.10
2022,04,18,04,14,-11.10
2022,04,18,04,15,-11.10
2022,04,18,04,16,-11.10
2022,04,18,04,17,-11.10
2022,04,18,04,18,-11.10
2022,04,18,04,19,-11.20
2022,04,18,04,20,-11.20
2022,04,18,04,21,-11.20
2022,04,18,04,22,-11.20
2022,04,18,04,23,-11.20
2022,04,18,04,24,-11.20
2022,04,18,04,25,-11.20
2022,04,18,04,26,-11.20
2022,04,18,04,27,-11.20
2022,04,18,04,28,-11.20
2022,04,18,04,29,-11.30
2022,04,18,04,30,-11.30
2022,04,18,04,31,-11.30
2022,04,18,04,32,-11.30
2022,04,18,04,33,-11.30
2022,04,18,04,34,-11.30
2022,04,18,04,35,-11.30
2022,04,18,04,36,-11.40
2022,04,18,04,37,-11.40
2022,04,18,04,38,-11.40
2022,04,18,04,39,-11.40
2022,04,18,04,40,-11.40
2022,04,18,04,41,-11.40
2022,04,18,04,42,-11.50
2022,04,18,04,43,-11.50
2022,04,18,04,44,-11.50
2022,04,18,04,45,-11.60
2022,04,18,04,46,-11.60
2022,04,18,04,47,-11.60
2022,04,18,04,48,-11.60
2022,04,18,04,49,-11.60
2022,04,18,04,50,-11.60
2022,04,18,04,51,-11.70
2022,04,18,04,52,-11.70
2022,04,18,04,53,-11.70
2022,04,18,04,54,-11.70
2022,04,18,04,55,-11.70
2022,04,18,04,56,-11.70
2022,04,18,04,57,-11.80
2022,04,18,04,58,-11.80
2022,04,18,04,59,-11.80
2022,04,18,05,00,-11.80
2022,04,18,05,01,-11.80
2022,04,18,05,02,-11.80
2022,04,18,05,03,-11.80
2022,04,18,05,04,-11.80
2022,04,18,05,05,-11.80
2022,04,18,05,06,-11.90
2022,04,18,05,07,-11.90
2022,04,18,05,08,-11.90
2022,04,18,05,09,-11.90
2022,04,18,05,10,-12.00
2022,04,18,05,11,-12.00
2022,04,18,05,12,-12.10
2022,04,18,05,13,-12.10
2022,04,18,05,14,-12.10
2022,04,18,05,15,-12.20
2022,04,18,05,16,-12.20
2022,04,18,05,17,-12.20
2022,04,18,05,18,-12.30
2022,04,18,05,19,-12.30
2022,04,18,05,20,-12.30
2022,04,18,05,21,-12.30
2022,04,18,05,22,-12.30
2022,04,18,05,23,-12.40
2022,04,18,05,24,-12.40
2022,04,18,05,25,-12.40
2022,04,18,05,26,-12.40
2022,04,18,05,27,-12.40
2022,04,18,05,28,-12.40
2022,04,18,05,29,-12.40
2022,04,18,05,30,-12.40
2022,04,18,05,31,-12.50
2022,04,18,05,32,-12.50
2022,04,18,05,33,-12.50
2022,04,18,05,34,-12.60
2022,04,18,05,35,-12.60
2022,04,18,05,36,-12.60
2022,04,18,05,37,-12.60
2022,04,18,05,38,-12.70
2022,04,18,05,39,-12.70
2022,04,18,05,40,-12.70
2022,04,18,05,41,-12.70
2022,04,18,05,42,-12.70
2022,04,18,05,43,-12.70
2022,04,18,05,44,-12.80
2022,04,18,05,45,-12.80
2022,04,18,05,46,-12.80
2022,04,18,05,47,-12.80
2022,04,18,05,48,-12.80
2022,04,18,05,49,-12.80
2022,04,18,05,50,-12.80
2022,04,18,05,51,-12.90
2022,04,18,05,52,-12.90
2022,04,18,05,53,-12.90
2022,04,18,05,54,-12.90
2022,04,18,05,55,-12.90
2022,04,18,05,56,-12.90
2022,04,18,05,57,-12.90
2022,04,18,05,58,-12.90
2022,04,18,05,59,-13.00
2022,04,18,06,00,-13.00
2022,04,18,06,01,-13.00
2022,04,18,06,02,-13.00
2022,04,18,06,03,-13.00
2022,04,18,06,04,-13.00
2022,04,18,06,05,-13.10
2022,04,18,06,06,-13.10
2022,04,18,06,07,-13.10
2022,04,18,06,08,-13.10
2022,04,18,06,09,-13.10
2022,04,18,06,10,-13.10
2022,04,18,06,11,-13.10
2022,04,18,06,12,-13.10
2022,04,18,06,13,-13.20
2022,04,18,06,14,-13.20
2022,04,18,06,15,-13.20
2022,04,18,06,16,-13.20
2022,04,18,06,17,-13.20
2022,04,18,06,18,-13.20
2022,04,18,06,19,-13.20
2022,04,18,06,20,-13.30
2022,04,18,06,21,-13.30
2022,04,18,06,22,-13.30
2022,04,18,06,23,-13.30
2022,04,18,06,24,-13.40
2022,04,18,06,25,-13.40
2022,04,18,06,26,-13.40
2022,04,18,06,27,-13.40
2022,04,18,06,28,-13.40
2022,04,18,06,29,-13.40
2022,04,18,06,30,-13.40
2022,04,18,06,31,-13.40
2022,04,18,06,32,-13.50
2022,04,18,06,33,-13.50
2022,04,18,06,34,-13.50
2022,04,18,06,35,-13.50
2022,04,18,06,36,-13.50
2022,04,18,06,37,-13.60
2022,04,18,06,38,-13.60
2022,04,18,06,39,-13.60
2022,04,18,06,40,-13.60
2022,04,18,06,41,-13.60
2022,04,18,06,42,-13.60
2022,04,18,06,43,-13.60
2022,04,18,06,44,-13.70
2022,04,18,06,45,-13.70
2022,04,18,06,46,-13.70
2022,04,18,06,47,-13.70
2022,04,18,06,48,-13.70
2022,04,18,06,49,-13.80
2022,04,18,06,50,-13.80
2022,04,18,06,51,-13.80
2022,04,18,06,52,-13.80
2022,04,18,06,53,-13.90
2022,04,18,06,54,-13.90
2022,04,18,06,55,-13.90
2022,04,18,06,56,-13.90
2022,04,18,06,57,-13.90
2022,04,18,06,58,-14.00
2022,04,18,06,59,-14.00
2022,04,18,07,00,-14.00
2022,04,18,07,01,-14.10
2022,04,18,07,02,-14.10
2022,04,18,07,03,-14.10
2022,04,18,07,04,-14.10
2022,04,18,07,05,-14.10
2022,04,18,07,06,-14.10
2022,04,18,07,07,-14.20
2022,04,18,07,08,-14.20
2022,04,18,07,09,-14.20
2022,04,18,07,10,-14.20
2022,04,18,07,11,-14.20
2022,04,18,07,12,-14.20
2022,04,18,07,13,-14.20
2022,04,18,07,14,-14.20
2022,04,18,07,15,-14.20
2022,04,18,07,16,-14.20
2022,04,18,07,17,-14.20
2022,04,18,07,18,-14.20
2022,04,18,07,19,-14.20
2022,04,18,07,20,-14.20
2022,04,18,07,21,-14.20
2022,04,18,07,22,-14.20
2022,04,18,07,23,-14.20
2022,04,18,07,24,-14.20
2022,04,18,07,25,-14.20
2022,04,18,07,26,-14.20
2022,04,18,07,27,-14.20
2022,04,18,07,28,-14.20
2022,04,18,07,29,-14.20
2022,04,18,07,30,-14.30
2022,04,18,07,31,-14.30
2022,04,18,07,32,-14.30
2022,04,18,07,33,-14.30
2022,04,18,07,34,-14.30
2022,04,18,07,35,-14.30
2022,04,18,07,36,-14.30
2022,04,18,07,37,-14.30
2022,04,18,07,38,-14.30
2022,04,18,07,39,-14.30
2022,04,18,07,40,-14.30
2022,04,18,07,41,-14.30
2022,04,18,07,42,-14.30
2022,04,18,07,43,-14.30
2022,04,18,07,44,-14.30
2022,04,18,07,45,-14.30
2022,04,18,07,46,-14.30
2022,04,18,07,47,-14.30
2022,04,18,07,48,-14.30
2022,04,18,07,49,-14.30
2022,04,18,07,50,-14.30
2022,04,18,07,51,-14.30
2022,04,18,07,52,-14.30
2022,04,18,07,53,-14.30
2022,04,18,07,54,-14.30
2022,04,18,07,55,-14.30
2022,04,18,07,56,-14.30
2022,04,18,07,57,-14.30
2022,04,18,07,58,-14.30
2022,04,18,07,59,-14.30
2022,04,18,08,00,-14.30
2022,04,18,08,01,-14.30
2022,04,18,08,02,-14.30
2022,04,18,08,03,-14.30
2022,04,18,08,04,-14.30
2022,04,18,08,05,-14.30
2022,04,18,08,06,-14.30
2022,04,18,08,07,-14.30
2022,04,18,08,08,-14.30
2022,04,18,08,09,-14.30
2022,04,18,08,10,-14.30
2022,04,18,08,11,-14.30
2022,04,18,08,12,-14.30
2022,04,18,08,13,-14.30
2022,04,18,08,14,-14.30
2022,04,18,08,15,-14.30
2022,04,18,08,16,-14.30
2022,04,18,08,17,-14.30
2022,04,18,08,18,-14.30
2022,04,18,08,19,-14.30
2022,04,18,08,20,-14.30
2022,04,18,08,21,-14.30
2022,04,18,08,22,-14.30
2022,04,18,08,23,-14.30
2022,04,18,08,24,-14.30
2022,04,18,08,25,-14.30
2022,04,18,08,26,-14.30
2022,04,18,08,27,-14.20
2022,04,18,08,28,-14.20
2022,04,18,08,29,-14.20
2022,04,18,08,30,-14.20
2022,04,18,08,31,-14.20
2022,04,18,08,32,-14.20
2022,04,18,08,33,-14.20
2022,04,18,08,34,-14.20
2022,04,18,08,35,-14.20
2022,04,18,08,36,-14.20
2022,04,18,08,37,-14.20
2022,04,18,08,38,-14.20
2022,04,18,08,39,-14.20
2022,04,18,08,40,-14.20
2022,04,18,08,41,-14.10
2022,04,18,08,42,-14.10
2022,04,18,08,43,-14.10
2022,04,18,08,44,-14.10
2022,04,18,08,45,-14.10
2022,04,18,08,46,-14.10
2022,04,18,08,47,-14.10
2022,04,18,08,48,-14.10
2022,04,18,08,49,-14.10
2022,04,18,08,50,-14.10
2022,04,18,08,51,-14.10
2022,04,18,08,52,-14.00
2022,04,18,08,53,-14.00
2022,04,18,08,54,-14.00
2022,04,18,08,55,-14.00
2022,04,18,08,56,-14.00
2022,04,18,08,57,-14.00
2022,04,18,08,58,-13.90
2022,04,18,08,59,-13.90
2022,04,18,09,00,-13.90
2022,04,18,09,01,-13.90
2022,04,18,09,02,-13.90
2022,04,18,09,03,-13.90
2022,04,18,09,04,-13.90
2022,04,18,09,05,-13.90
2022,04,18,09,06,-13.90
2022,04,18,09,07,-13.80
2022,04,18,09,08,-13.80
2022,04,18,09,09,-13.80
2022,04,18,09,10,-13.80
2022,04,18,09,11,-13.80
2022,04,18,09,12,-13.80
2022,04,18,09,13,-13.80
2022,04,18,09,14,-13.80
2022,04,18,09,15,-13.80
2022,04,18,09,16,-13.70
2022,04,18,09,17,-13.70
2022,04,18,09,18,-13.70
2022,04,18,09,19,-13.70
2022,04,18,09,20,-13.70
2022,04,18,09,21,-13.70
2022,04,18,09,22,-13.60
2022,04,18,09,23,-13.60
2022,04,18,09,24,-13.50
2022,04,18,09,25,-13.50
2022,04,18,09,26,-13.40
2022,04,18,09,27,-13.30
2022,04,18,09,28,-13.20
2022,04,18,09,29,-13.10
2022,04,18,09,30,-12.90
2022,04,18,09,31,-12.80
2022,04,18,09,32,-12.60
2022,04,18,09,33,-12.50
2022,04,18,09,34,-12.30
2022,04,18,09,35,-12.20
2022,04,18,09,36,-12.00
2022,04,18,09,37,-11.90
2022,04,18,09,38,-11.70
2022,04,18,09,39,-11.60
2022,04,18,09,40,-11.50
2022,04,18,09,41,-11.40
2022,04,18,09,42,-11.30
2022,04,18,09,43,-11.20
2022,04,18,09,44,-11.10
2022,04,18,09,45,-11.00
2022,04,18,09,46,-10.90
2022,04,18,09,47,-10.80
2022,04,18,09,48,-10.70
2022,04,18,09,49,-10.70
2022,04,18,09,50,-10.60
2022,04,18,09,51,-10.50
2022,04,18,09,52,-10.40
2022,04,18,09,53,-10.40
2022,04,18,09,54,-10.30
2022,04,18,09,55,-10.30
2022,04,18,09,56,-10.20
2022,04,18,09,57,-10.20
2022,04,18,09,58,-10.20
2022,04,18,09,59,-10.20
2022,04,18,10,00,-10.10
2022,04,18,10,01,-10.10
2022,04,18,10,02,-10.00
2022,04,18,10,03,-9.90
2022,04,18,10,04,-9.90
2022,04,18,10,05,-9.90
2022,04,18,10,06,-9.90
2022,04,18,10,07,-9.80
2022,04,18,10,08,-9.70
2022,04,18,10,09,-9.60
2022,04,18,10,10,-9.60
2022,04,18,10,11,-9.50
2022,04,18,10,12,-9.40
2022,04,18,10,13,-9.30
2022,04,18,10,14,-9.30
2022,04,18,10,15,-9.30
2022,04,18,10,16,-9.20
2022,04,18,10,17,-9.10
2022,04,18,10,18,-9.00
2022,04,18,10,19,-8.90
2022,04,18,10,20,-8.80
2022,04,18,10,21,-8.80
2022,04,18,10,22,-8.70
2022,04,18,10,23,-8.60
2022,04,18,10,24,-8.60
2022,04,18,10,25,-8.60
2022,04,18,10,26,-8.50
2022,04,18,10,27,-8.50
2022,04,18,10,28,-8.50
2022,04,18,10,29,-8.40
2022,04,18,10,30,-8.30
2022,04,18,10,31,-8.30
2022,04,18,10,32,-8.20
2022,04,18,10,33,-8.20
2022,04,18,10,34,-8.10
2022,04,18,10,35,-8.10
2022,04,18,10,36,-8.10
2022,04,18,10,37,-8.10
2022,04,18,10,38,-8.10
2022,04,18,10,39,-8.10
2022,04,18,10,40,-8.10
2022,04,18,10,41,-8.10
2022,04,18,10,42,-8.10
2022,04,18,10,43,-8.10
2022,04,18,10,44,-8.10
2022,04,18,10,45,-8.00
2022,04,18,10,46,-8.00
2022,04,18,10,47,-7.90
2022,04,18,10,48,-7.90
2022,04,18,10,49,-7.80
2022,04,18,10,50,-7.80
2022,04,18,10,51,-7.70
2022,04,18,10,52,-7.60
2022,04,18,10,53,-7.60
2022,04,18,10,54,-7.50
2022,04,18,10,55,-7.40
2022,04,18,10,56,-7.30
2022,04,18,10,57,-7.30
2022,04,18,10,58,-7.20
2022,04,18,10,59,-7.10
2022,04,18,11,00,-7.10
2022,04,18,11,01,-7.00
2022,04,18,11,02,-7.00
2022,04,18,11,03,-6.90
2022,04,18,11,04,-6.90
2022,04,18,11,05,-6.80
2022,04,18,11,06,-6.80
2022,04,18,11,07,-6.80
2022,04,18,11,08,-6.80
2022,04,18,11,09,-6.70
2022,04,18,11,10,-6.70
2022,04,18,11,11,-6.70
2022,04,18,11,12,-6.70
2022,04,18,11,13,-6.70
2022,04,18,11,14,-6.70
2022,04,18,11,15,-6.60
2022,04,18,11,16,-6.50
2022,04,18,11,17,-6.50
2022,04,18,11,18,-6.40
2022,04,18,11,19,-6.40
2022,04,18,11,20,-6.40
2022,04,18,11,21,-6.30
2022,04,18,11,22,-6.20
2022,04,18,11,23,-6.20
2022,04,18,11,24,-6.20
2022,04,18,11,25,-6.10
2022,04,18,11,26,-6.10
2022,04,18,11,27,-6.00
2022,04,18,11,28,-6.00
2022,04,18,11,29,-5.90
2022,04,18,11,30,-5.90
2022,04,18,11,31,-5.90
2022,04,18,11,32,-5.90
2022,04,18,11,33,-5.90
2022,04,18,11,34,-5.90
2022,04,18,11,35,-5.90
2022,04,18,11,36,-5.90
2022,04,18,11,37,-5.90
2022,04,18,11,38,-5.90
2022,04,18,11,39,-5.80
2022,04,18,11,40,-5.80
2022,04,18,11,41,-5.70
2022,04,18,11,42,-5.60
2022,04,18,11,43,-5.50
2022,04,18,11,44,-5.40
2022,04,18,11,45,-5.30
2022,04,18,11,46,-5.10
2022,04,18,11,47,-4.90
2022,04,18,11,48,-4.80
2022,04,18,11,49,-4.60
2022,04,18,11,50,-4.50
2022,04,18,11,51,-4.40
2022,04,18,11,52,-4.30
2022,04,18,11,53,-4.30
2022,04,18,11,54,-4.20
2022,04,18,11,55,-4.10
2022,04,18,11,56,-4.10
2022,04,18,11,57,-4.10
2022,04,18,11,58,-4.20
2022,04,18,11,59,-4.20
2022,04,18,12,00,-4.20
2022,04,18,12,01,-4.30
2022,04,18,12,02,-4.30
2022,04,18,12,03,-4.30
2022,04,18,12,04,-4.30
2022,04,18,12,05,-4.40
2022,04,18,12,06,-4.40
2022,04,18,12,07,-4.30
2022,04,18,12,08,-4.30
2022,04,18,12,09,-4.30
2022,04,18,12,10,-4.30
2022,04,18,12,11,-4.30
2022,04,18,12,12,-4.30
2022,04,18,12,13,-4.30
2022,04,18,12,14,-4.20
2022,04,18,12,15,-4.20
2022,04,18,12,16,-4.10
2022,04,18,12,17,-4.00
2022,04,18,12,18,-3.80
2022,04,18,12,19,-3.70
2022,04,18,12,20,-3.60
2022,04,18,12,21,-3.50
2022,04,18,12,22,-3.30
2022,04,18,12,23,-3.30
2022,04,18,12,24,-3.20
2022,04,18,12,25,-3.20
2022,04,18,12,26,-3.20
2022,04,18,12,27,-3.10
2022,04,18,12,28,-3.10
2022,04,18,12,29,-3.10
2022,04,18,12,30,-3.10
2022,04,18,12,31,-3.00
2022,04,18,12,32,-3.00
2022,04,18,12,33,-2.90
2022,04,18,12,34,-2.80
2022,04,18,12,35,-2.80
2022,04,18,12,36,-2.70
2022,04,18,12,37,-2.60
2022,04,18,12,38,-2.40
2022,04,18,12,39,-2.30
2022,04,18,12,40,-2.30
2022,04,18,12,41,-2.20
2022,04,18,12,42,-2.20
2022,04,18,12,43,-2.20
2022,04,18,12,44,-2.10
2022,04,18,12,45,-2.10
2022,04,18,12,46,-2.10
2022,04,18,12,47,-2.10
2022,04,18,12,48,-2.00
2022,04,18,12,49,-2.00
2022,04,18,12,50,-2.00
2022,04,18,12,51,-2.00
2022,04,18,12,52,-2.00
2022,04,18,12,53,-1.90
2022,04,18,12,54,-1.80
2022,04,18,12,55,-1.80
2022,04,18,12,56,-1.70
2022,04,18,12,57,-1.60
2022,04,18,12,58,-1.50
2022,04,18,12,59,-1.40
2022,04,18,13,00,-1.30
2022,04,18,13,01,-1.30
2022,04,18,13,02,-1.20
2022,04,18,13,03,-1.10
2022,04,18,13,04,-1.10
2022,04,18,13,05,-1.00
2022,04,18,13,06,-0.90
2022,04,18,13,07,-0.90
2022,04,18,13,08,-0.80
2022,04,18,13,09,-0.80
2022,04,18,13,10,-0.80
2022,04,18,13,11,-0.70
2022,04,18,13,12,-0.60
2022,04,18,13,13,-0.50
2022,04,18,13,14,-0.50
2022,04,18,13,15,-0.30
2022,04,18,13,16,-0.20
2022,04,18,13,17,-0.10
2022,04,18,13,18,0.00
2022,04,18,13,19,0.10
2022,04,18,13,20,0.20
2022,04,18,13,21,0.30
2022,04,18,13,22,0.40
2022,04,18,13,23,0.50
2022,04,18,13,24,0.70
2022,04,18,13,25,0.80
2022,04,18,13,26,0.90
2022,04,18,13,27,1.10
2022,04,18,13,28,1.20
2022,04,18,13,29,1.30
2022,04,18,13,30,1.40
2022,04,18,13,31,1.60
2022,04,18,13,32,1.70
2022,04,18,13,33,1.80
2022,04,18,13,34,1.80
2022,04,18,13,35,1.90
2022,04,18,13,36,1.90
2022,04,18,13,37,2.00
2022,04,18,13,38,2.00
2022,04,18,13,39,2.10
2022,04,18,13,40,2.10
2022,04,18,13,41,2.20
2022,04,18,13,42,2.20
2022,04,18,13,43,2.30
2022,04,18,13,44,2.30
2022,04,18,13,45,2.40
2022,04,18,13,46,2.40
2022,04,18,13,47,2.40
2022,04,18,13,48,2.40
2022,04,18,13,49,2.40
2022,04,18,13,50,2.40
2022,04,18,13,51,2.40
2022,04,18,13,52,2.40
2022,04,18,13,53,2.40
2022,04,18,13,54,2.40
2022,04,18,13,55,2.40
2022,04,18,13,56,2.40
2022,04,18,13,57,2.40
2022,04,18,13,58,2.40
2022,04,18,13,59,2.40
2022,04,18,14,00,2.40
2022,04,18,14,01,2.40
2022,04,18,14,02,2.40
2022,04,18,14,03,2.40
2022,04,18,14,04,2.40
2022,04,18,14,05,2.50
2022,04,18,14,06,2.50
2022,04,18,14,07,2.50
2022,04,18,14,08,2.50
2022,04,18,14,09,2.60
2022,04,18,14,10,2.60
2022,04,18,14,11,2.60
2022,04,18,14,12,2.60
2022,04,18,14,13,2.60
2022,04,18,14,14,2.70
2022,04,18,14,15,2.80
2022,04,18,14,16,2.80
2022,04,18,14,17,2.80
2022,04,18,14,18,2.80
2022,04,18,14,19,2.80
2022,04,18,14,20,2.70
2022,04,18,14,21,2.70
2022,04,18,14,22,2.70
2022,04,18,14,23,2.70
2022,04,18,14,24,2.80
2022,04,18,14,25,2.80
2022,04,18,14,26,2.90
2022,04,18,14,27,2.90
2022,04,18,14,28,3.00
2022,04,18,14,29,2.90
2022,04,18,14,30,2.90
2022,04,18,14,31,2.90
2022,04,18,14,32,3.00
2022,04,18,14,33,2.90
2022,04,18,14,34,3.00
2022,04,18,14,35,3.00
2022,04,18,14,36,3.10
2022,04,18,14,37,3.10
2022,04,18,14,38,3.10
2022,04,18,14,39,3.10
2022,04,18,14,40,3.10
2022,04,18,14,41,3.20
2022,04,18,14,42,3.20
2022,04,18,14,43,3.20
2022,04,18,14,44,3.20
2022,04,18,14,45,3.20
2022,04,18,14,46,3.10
2022,04,18,14,47,3.10
2022,04,18,14,48,3.10
2022,04,18,14,49,3.10
2022,04,18,14,50,3.20
2022,04,18,14,51,3.20
2022,04,18,14,52,3.20
2022,04,18,14,53,3.20
2022,04,18,14,54,3.10
2022,04,18,14,55,3.10
2022,04,18,14,56,3.10
2022,04,18,14,57,3.10
2022,04,18,14,58,3.20
2022,04,18,14,59,3.20
2022,04,18,15,00,3.20
2022,04,18,15,01,3.30
2022,04,18,15,02,3.30
2022,04,18,15,03,3.30
2022,04,18,15,04,3.20
2022,04,18,15,05,3.20
2022,04,18,15,06,3.10
2022,04,18,15,07,3.10
2022,04,18,15,08,3.10
2022,04,18,15,09,3.20
2022,04,18,15,10,3.20
2022,04,18,15,11,3.20
2022,04,18,15,12,3.20
2022,04,18,15,13,3.20
2022,04,18,15,14,3.20
2022,04,18,15,15,3.30
2022,04,18,15,16,3.30
2022,04,18,15,17,3.30
2022,04,18,15,18,3.30
2022,04,18,15,19,3.30
2022,04,18,15,20,3.30
2022,04,18,15,21,3.40
2022,04,18,15,22,3.40
2022,04,18,15,23,3.50
2022,04,18,15,24,3.50
2022,04,18,15,25,3.50
2022,04,18,15,26,3.50
2022,04,18,15,27,3.60
2022,04,18,15,28,3.60
2022,04,18,15,29,3.60
2022,04,18,15,30,3.60
2022,04,18,15,31,3.60
2022,04,18,15,32,3.60
2022,04,18,15,33,3.70
2022,04,18,15,34,3.70
2022,04,18,15,35,3.80
2022,04,18,15,36,3.80
2022,04,18,15,37,3.80
2022,04,18,15,38,3.80
2022,04,18,15,39,3.80
2022,04,18,15,40,3.80
2022,04,18,15,41,3.80
2022,04,18,15,42,3.80
2022,04,18,15,43,3.80
2022,04,18,15,44,3.70
2022,04,18,15,45,3.70
2022,04,18,15,46,3.70
2022,04,18,15,47,3.60
2022,04,18,15,48,3.60
2022,04,18,15,49,3.60
2022,04,18,15,50,3.60
2022,04,18,15,51,3.60
2022,04,18,15,52,3.60
2022,04,18,15,53,3.60
2022,04,18,15,54,3.70
2022,04,18,15,55,3.70
2022,04,18,15,56,3.70
2022,04,18,15,57,3.70
2022,04,18,15,58,3.70
2022,04,18,15,59,3.70
2022,04,18,16,00,3.70
2022,04,18,16,01,3.70
2022,04,18,16,02,3.70
2022,04,18,16,03,3.70
2022,04,18,16,04,3.80
2022,04,18,16,05,3.80
2022,04,18,16,06,3.80
2022,04,18,16,07,3.80
2022,04,18,16,08,3.80
2022,04,18,16,09,3.80
2022,04,18,16,10,3.80
2022,04,18,16,11,3.80
2022,04,18,16,12,3.80
2022,04,18,16,13,3.80
2022,04,18,16,14,3.80
2022,04,18,16,15,3.80
2022,04,18,16,16,3.80
2022,04,18,16,17,3.80
2022,04,18,16,18,3.80
2022,04,18,16,19,3.80
2022,04,18,16,20,3.80
2022,04,18,16,21,3.80
2022,04,18,16,22,3.70
2022,04,18,16,23,3.70
2022,04,18,16,24,3.70
2022,04,18,16,25,3.70
2022,04,18,16,26,3.70
2022,04,18,16,27,3.60
2022,04,18,16,28,3.60
2022,04,18,16,29,3.60
2022,04,18,16,30,3.60
2022,04,18,16,31,3.60
2022,04,18,16,32,3.60
2022,04,18,16,33,3.70
2022,04,18,16,34,3.70
2022,04,18,16,35,3.70
2022,04,18,16,36,3.70
2022,04,18,16,37,3.70
2022,04,18,16,38,3.70
2022,04,18,16,39,3.70
2022,04,18,16,40,3.70
2022,04,18,16,41,3.70
2022,04,18,16,42,3.70
2022,04,18,16,43,3.80
2022,04,18,16,44,3.80
2022,04,18,16,45,3.80
2022,04,18,16,46,3.80
2022,04,18,16,47,3.80
2022,04,18,16,48,3.90
2022,04,18,16,49,3.90
2022,04,18,16,50,3.90
2022,04,18,16,51,4.00
2022,04,18,16,52,4.00
2022,04,18,16,53,4.00
2022,04,18,16,54,4.00
2022,04,18,16,55,3.90
2022,04,18,16,56,3.90
2022,04,18,16,57,3.90
2022,04,18,16,58,3.90
2022,04,18,16,59,4.00
2022,04,18,17,00,4.00
2022,04,18,17,01,4.10
2022,04,18,17,02,4.10
2022,04,18,17,03,4.10
2022,04,18,17,04,4.10
2022,04,18,17,05,4.10
2022,04,18,17,06,4.10
2022,04,18,17,07,4.00
2022,04,18,17,08,4.10
2022,04,18,17,09,4.10
2022,04,18,17,10,4.10
2022,04,18,17,11,4.10